KD8ZLZ Weather Reports


Display with metric or nautical units.
time (UTC)temp
F
wind
direction
speed
MPH
gust
MPH
rain 1hr
in
rain 24hr
in
rain mn
in
humidity
%
barometer
mb
20260503202532 64 228 11.0 19.0 0.00 0.00 0.00 38 1011.0
20260503202112 63 227 11.0 20.0 0.00 0.00 0.00 38 1011.3
20260503201532 65 219 12.0 20.0 0.00 0.00 0.00 37 1011.4
20260503201032 65 221 9.0 17.0 0.00 0.00 0.00 37 1011.4
20260503200612 63 221 11.0 19.0 0.00 0.00 0.00 38 1011.4
20260503200113 64 222 12.0 22.0 0.00 0.00 0.00 37 1011.4
20260503195532 64 223 11.0 23.0 0.00 0.00 0.00 36 1011.4
20260503195032 63 215 11.0 21.0 0.00 0.00 0.00 38 1011.4
20260503194532 64 223 13.0 21.0 0.00 0.00 0.00 37 1011.4
20260503194032 64 223 9.0 17.0 0.00 0.00 0.00 37 1011.7
20260503193532 65 232 11.0 19.0 0.00 0.00 0.00 36 1011.7
20260503193053 65 228 10.0 21.0 0.00 0.00 0.00 36 1011.7
20260503192532 64 227 11.0 20.0 0.00 0.00 0.00 36 1011.7
20260503192033 63 230 11.0 22.0 0.00 0.00 0.00 36 1012.0
20260503191553 64 223 11.0 17.0 0.00 0.00 0.00 35 1012.0
20260503191032 65 217 11.0 23.0 0.00 0.00 0.00 36 1012.1
20260503190532 64 217 12.0 20.0 0.00 0.00 0.00 35 1012.0
20260503190032 64 234 10.0 16.0 0.00 0.00 0.00 36 1012.0
20260503185532 64 217 12.0 20.0 0.00 0.00 0.00 35 1012.0
20260503185032 64 224 12.0 22.0 0.00 0.00 0.00 36 1012.4
20260503184532 64 239 12.0 25.0 0.00 0.00 0.00 36 1012.4
20260503184032 64 206 11.0 21.0 0.00 0.00 0.00 36 1012.4
20260503183532 63 238 10.0 18.0 0.00 0.00 0.00 37 1012.4
20260503183052 63 215 13.0 20.0 0.00 0.00 0.00 37 1012.4
20260503182533 63 225 11.0 23.0 0.00 0.00 0.00 36 1012.4
20260503182032 63 229 13.0 23.0 0.00 0.00 0.00 37 1012.7
20260503181533 63 244 10.0 19.0 0.00 0.00 0.00 36 1013.0
20260503181032 63 224 13.0 20.0 0.00 0.00 0.00 35 1013.0
20260503180553 63 227 12.0 24.0 0.00 0.00 0.00 36 1013.0
20260503180032 63 230 12.0 21.0 0.00 0.00 0.00 36 1013.0
20260503175532 62 221 11.0 21.0 0.00 0.00 0.00 38 1013.0
20260503175032 62 221 9.0 16.0 0.00 0.00 0.00 39 1013.0
20260503174532 62 214 9.0 17.0 0.00 0.00 0.00 39 1013.3
20260503174032 61 215 11.0 18.0 0.00 0.00 0.00 38 1013.3
20260503173532 61 220 11.0 18.0 0.00 0.00 0.00 38 1013.4
20260503173032 63 220 9.0 17.0 0.00 0.00 0.00 38 1013.7
20260503172532 62 225 9.0 15.0 0.00 0.00 0.00 39 1013.7
20260503172032 62 225 10.0 20.0 0.00 0.00 0.00 39 1013.7
20260503171533 62 215 9.0 17.0 0.00 0.00 0.00 40 1014.0
20260503171032 61 230 8.0 17.0 0.00 0.00 0.00 40 1014.0
20260503170532 60 224 9.0 16.0 0.00 0.00 0.00 41 1014.0
20260503170132 60 229 9.0 16.0 0.00 0.00 0.00 42 1013.9
20260503150532 59 253 6.0 10.0 0.00 0.00 0.00 42 1014.3
20260503131032 47 224 6.0 11.0 0.00 0.00 0.00 56 1014.9
20260503130552 47 211 6.0 12.0 0.00 0.00 0.00 57 1014.9
20260503110532 36 211 3.0 6.0 0.00 0.00 0.00 68 1014.7
20260503081532 34 202 2.0 4.0 0.00 0.00 0.00 79 1015.6
20260503081032 34 199 2.0 4.0 0.00 0.00 0.00 80 1015.6
20260503080532 34 199 1.0 3.0 0.00 0.00 0.00 81 1015.6
20260503072532 35 195 2.0 3.0 0.00 0.00 0.00 73 1015.6
20260503072052 35 193 1.0 2.0 0.00 0.00 0.00 74 1015.6
20260503071531 35 197 1.0 2.0 0.00 0.00 0.00 74 1016.0
20260503071031 36 191 2.0 3.0 0.00 0.00 0.00 72 1016.0
20260503070531 36 192 2.0 3.0 0.00 0.00 0.00 72 1016.0
20260503055032 35 202 1.0 2.0 0.00 0.00 0.00 83 1016.3
20260503054532 35 191 1.0 2.0 0.00 0.00 0.00 80 1016.3
20260503054031 35 204 1.0 3.0 0.00 0.00 0.00 83 1016.3
20260503053552 35 193 1.0 2.0 0.00 0.00 0.00 85 1016.3
20260503053032 36 191 1.0 2.0 0.00 0.00 0.00 81 1016.3
20260503052532 36 192 1.0 2.0 0.00 0.00 0.00 82 1016.3
20260503052032 36 196 1.0 2.0 0.00 0.00 0.00 78 1016.3
20260503051531 36 190 1.0 2.0 0.00 0.00 0.00 79 1016.3
20260503051031 36 197 1.0 2.0 0.00 0.00 0.00 80 1016.3
20260503050532 36 200 1.0 3.0 0.00 0.00 0.00 81 1016.3
20260503050031 36 200 1.0 2.0 0.00 0.00 0.00 80 1016.3
20260503045531 36 204 1.0 2.0 0.00 0.00 0.00 84 1016.3
20260503045031 36 195 1.0 2.0 0.00 0.00 0.00 86 1016.3
20260503044531 35 197 1.0 2.0 0.00 0.00 0.00 86 1016.3
20260503044031 35 197 1.0 2.0 0.00 0.00 0.00 86 1016.3
20260503043533 35 192 1.0 2.0 0.00 0.00 0.00 88 1016.3
20260503043031 35 188 1.0 1.0 0.00 0.00 0.00 87 1016.6
20260503042531 35 185 1.0 1.0 0.00 0.00 0.00 83 1016.6
20260503042031 35 177 0.0 1.0 0.00 0.00 0.00 82 1016.6
20260503041532 36 167 0.0 1.0 0.00 0.00 0.00 80 1016.6
20260503041032 36 178 0.0 2.0 0.00 0.00 0.00 82 1016.6
20260503040531 36 185 1.0 1.0 0.00 0.00 0.00 84 1016.6
20260503040031 36 191 1.0 1.0 0.00 0.00 0.00 85 1016.6
20260503035531 36 182 1.0 1.0 0.00 0.00 0.00 84 1016.6
20260503035032 36 185 1.0 2.0 0.00 0.00 0.00 86 1016.6
20260503034531 36 190 1.0 1.0 0.00 0.00 0.00 85 1016.6
20260503034051 36 191 1.0 1.0 0.00 0.00 0.00 86 1016.6
20260503033551 36 187 1.0 1.0 0.00 0.00 0.00 85 1016.6
20260503033052 36 180 1.0 1.0 0.00 0.00 0.00 80 1016.6
20260503032532 36 172 1.0 1.0 0.00 0.00 0.00 80 1016.6
20260503032031 36 185 1.0 2.0 0.00 0.00 0.00 82 1016.9
20260503031531 36 197 1.0 2.0 0.00 0.00 0.00 84 1016.9
20260503031113 36 165 0.0 1.0 0.00 0.00 0.00 81 1016.9
20260503030552 36 187 1.0 1.0 0.00 0.00 0.00 81 1016.9
20260503030032 36 179 0.0 1.0 0.00 0.00 0.00 83 1016.9
20260503025551 36 147 1.0 1.0 0.00 0.00 0.00 81 1016.9
20260503025031 37 150 0.0 1.0 0.00 0.00 0.00 80 1016.9
20260503024552 37 179 0.0 1.0 0.00 0.00 0.00 81 1016.9
20260503024031 37 165 0.0 0.0 0.00 0.00 0.00 80 1016.9
20260503023531 37 182 1.0 2.0 0.00 0.00 0.00 80 1017.0
20260503023031 37 176 0.0 1.0 0.00 0.00 0.00 80 1017.0
20260503022531 37 156 0.0 0.0 0.00 0.00 0.00 77 1017.0
20260503022031 38 161 0.0 0.0 0.00 0.00 0.00 79 1016.7
20260503021533 38 173 0.0 1.0 0.00 0.00 0.00 77 1016.7
20260503021051 38 172 0.0 1.0 0.00 0.00 0.00 79 1016.7
20260503020531 38 169 0.0 0.0 0.00 0.00 0.00 79 1016.6
20260503020031 38 160 0.0 0.0 0.00 0.00 0.00 76 1016.6
20260503015551 39 158 0.0 0.0 0.00 0.00 0.00 74 1016.6
20260503015051 39 158 0.0 0.0 0.00 0.00 0.00 72 1016.7
20260503014531 40 172 0.0 0.0 0.00 0.00 0.00 72 1016.7
20260503014052 40 163 0.0 0.0 0.00 0.00 0.00 70 1016.7
20260503013531 41 166 0.0 0.0 0.00 0.00 0.00 67 1016.7
20260503013052 42 166 0.0 0.0 0.00 0.00 0.00 68 1016.7
20260503012532 42 173 0.0 0.0 0.00 0.00 0.00 66 1016.7
20260503012031 43 177 0.0 1.0 0.00 0.00 0.00 63 1016.7
20260503011533 43 177 0.0 1.0 0.00 0.00 0.00 57 1016.7
20260503011031 44 180 1.0 1.0 0.00 0.00 0.00 51 1016.8
20260503010531 44 182 1.0 1.0 0.00 0.00 0.00 50 1016.7
20260503010031 45 182 1.0 2.0 0.00 0.00 0.00 49 1016.7
20260503005532 45 196 2.0 2.0 0.00 0.00 0.00 49 1016.7
20260503005032 45 191 1.0 2.0 0.00 0.00 0.00 52 1016.7
20260503004531 46 177 0.0 2.0 0.00 0.00 0.00 54 1016.7
20260503004031 46 181 1.0 1.0 0.00 0.00 0.00 51 1016.8
20260503003551 47 192 1.0 2.0 0.00 0.00 0.00 48 1016.4
20260503003031 47 196 1.0 2.0 0.00 0.00 0.00 46 1016.4
20260503002531 48 199 1.0 2.0 0.00 0.00 0.00 45 1016.8
20260503002031 48 198 1.0 2.0 0.00 0.00 0.00 45 1016.7
20260503001531 48 210 1.0 3.0 0.00 0.00 0.00 44 1016.8
20260503001031 48 223 1.0 2.0 0.00 0.00 0.00 43 1016.8
20260503000532 48 246 1.0 2.0 0.00 0.00 0.00 44 1016.7
20260503000031 48 241 1.0 2.0 0.00 0.00 0.00 43 1016.6
20260502235531 48 248 2.0 4.0 0.00 0.00 0.00 42 1016.7
20260502235031 48 293 3.0 4.0 0.00 0.00 0.00 41 1016.6
20260502234531 48 260 3.0 5.0 0.00 0.00 0.00 42 1016.7
20260502234031 48 286 3.0 4.0 0.00 0.00 0.00 42 1016.7
20260502233531 48 303 4.0 6.0 0.00 0.00 0.00 41 1016.6
20260502233031 48 254 2.0 4.0 0.00 0.00 0.00 42 1016.7
20260502232531 48 298 4.0 7.0 0.00 0.00 0.00 41 1016.6
20260502232031 48 287 3.0 5.0 0.00 0.00 0.00 41 1016.7
20260502231531 48 302 3.0 5.0 0.00 0.00 0.00 41 1016.6
20260502231031 48 302 4.0 7.0 0.00 0.00 0.00 42 1016.7
20260502230531 48 273 4.0 7.0 0.00 0.00 0.00 42 1016.7
20260502230031 48 287 4.0 10.0 0.00 0.00 0.00 42 1016.7
20260502225531 48 243 4.0 10.0 0.00 0.00 0.00 41 1016.6
20260502225031 48 254 4.0 6.0 0.00 0.00 0.00 41 1016.6
20260502224612 48 277 3.0 6.0 0.00 0.00 0.00 41 1016.6
20260502224051 48 284 4.0 8.0 0.00 0.00 0.00 41 1016.7
20260502223551 49 264 5.0 8.0 0.00 0.00 0.00 40 1016.7
20260502223051 48 234 4.0 7.0 0.00 0.00 0.00 41 1016.7
20260502222551 48 287 3.0 5.0 0.00 0.00 0.00 40 1016.7
20260502222031 48 280 3.0 5.0 0.00 0.00 0.00 41 1016.7
20260502221531 48 280 3.0 6.0 0.00 0.00 0.00 40 1016.7
20260502221031 48 292 5.0 7.0 0.00 0.00 0.00 39 1016.7
20260502220551 48 284 5.0 9.0 0.00 0.00 0.00 39 1016.7
20260502220052 49 275 4.0 10.0 0.00 0.00 0.00 40 1016.7
20260502215531 49 276 4.0 7.0 0.00 0.00 0.00 38 1016.7
20260502215051 49 292 3.0 6.0 0.00 0.00 0.00 39 1016.7
20260502214611 49 306 4.0 6.0 0.00 0.00 0.00 39 1016.7
20260502214051 48 317 4.0 7.0 0.00 0.00 0.00 38 1016.7
20260502213531 49 301 4.0 8.0 0.00 0.00 0.00 40 1016.7
20260502213031 49 298 4.0 9.0 0.00 0.00 0.00 39 1016.7
20260502212531 49 291 5.0 8.0 0.00 0.00 0.00 39 1017.0
20260502212031 49 282 6.0 10.0 0.00 0.00 0.00 39 1017.0
20260502211531 49 288 6.0 10.0 0.00 0.00 0.00 39 1017.0
20260502211031 48 268 6.0 10.0 0.00 0.00 0.00 39 1016.7
20260502210552 48 306 5.0 10.0 0.00 0.00 0.00 39 1016.7
20260502210031 48 309 4.0 9.0 0.00 0.00 0.00 39 1017.0
20260502205531 48 289 5.0 9.0 0.00 0.00 0.00 39 1017.0
20260502205031 49 291 4.0 7.0 0.00 0.00 0.00 40 1017.0
20260502204531 49 255 4.0 9.0 0.00 0.00 0.00 39 1017.0
20260502204031 49 240 4.0 8.0 0.00 0.00 0.00 39 1017.0
20260502203531 48 271 5.0 7.0 0.00 0.00 0.00 39 1017.0
20260502203031 48 253 4.0 7.0 0.00 0.00 0.00 40 1017.0